Sugar Grove, IL

10:28 AM CDT on July 29, 2016 (GMT -0500)
Aurora Municipal

Weather History for KARR - October, 2012

Change the Weather History Date:

Saturday, October 20, 2012

  Actual Average Record
Temperature  
Mean Temperature 46 °F 49 °F  
Max Temperature 57 °F 61 °F 84 °F (2003)
Min Temperature 34 °F 38 °F 25 °F (2002)
Degree Days  
Heating Degree Days 19 16  
Month to date heating degree days 310 259  
Since 1 July heating degree days 509 412  
Cooling Degree Days 0 0  
Month to date cooling degree days 0 9  
Year to date cooling degree days 1004 656  
Moisture  
Dew Point 38 °F    
Average Humidity 78    
Maximum Humidity 100    
Minimum Humidity 55    
Precipitation  
Precipitation 0.00 in 0.10 in 0.26 in (2008)
Month to date precipitation 2.94 2.04  
Year to date precipitation 20.72 30.68  
Sea Level Pressure  
Sea Level Pressure 29.82 in    
Wind  
Wind Speed 6 mph (WSW)    
Max Wind Speed 15 mph    
Max Gust Speed 20 mph    
Visibility 9 miles    
Events      
T = Trace of Precipitation, MM = Missing Value Source: NWS Daily Summary

Daily Weather History Graph

Daily Weather History Graph

Search for Another Location

Airport or City:

Trip Planner

Search our weather history database for the weather conditions in past years. The results will help you decide how hot, cold, wet, or windy it might be!

Date:

Astronomy

Oct. 20, 2012 Rise Set
Actual Time 7:12 AM CDT 6:04 PM CDT
Civil Twilight 6:44 AM CDT 6:32 PM CDT
Nautical Twilight 6:11 AM CDT 7:04 PM CDT
Astronomical Twilight 5:39 AM CDT 7:36 PM CDT
Moon 12:50 PM CDT (10/20) 10:47 PM CDT (10/20)
Length of Visible Light 11h 48m
Length of Day
10h 51m
Waxing Crescent, 34% of the Moon is Illuminated
Oct 20
Waxing Crescent
Oct 21
First Quarter
Oct 29
Full
Nov 6
Last Quarter
Nov 13
New

Hourly Weather History & Observations

Time (CDT) Temp. Windchill Dew Point Humidity Pressure Visibility Wind Dir Wind Speed Gust Speed Precip Events Conditions
12:52 AM 37.9 °F 31.5 °F 37.0 °F 97% 29.69 in 10.0 mi West 9.2 mph - N/A   Clear
1:52 AM 36.0 °F 33.3 °F 36.0 °F 100% 29.70 in 10.0 mi West 3.5 mph - N/A   Clear
2:52 AM 36.0 °F 31.1 °F 35.1 °F 97% 29.71 in 10.0 mi West 5.8 mph - N/A   Clear
3:52 AM 36.0 °F 30.3 °F 35.1 °F 97% 29.72 in 9.0 mi West 6.9 mph - N/A   Clear
4:52 AM 35.1 °F 29.3 °F 34.0 °F 96% 29.73 in 8.0 mi West 6.9 mph - N/A   Clear
5:52 AM 34.0 °F 28.0 °F 34.0 °F 100% 29.76 in 7.0 mi West 6.9 mph - N/A   Clear
6:52 AM 35.1 °F 29.3 °F 34.0 °F 96% 29.78 in 8.0 mi WSW 6.9 mph - N/A   Clear
7:52 AM 35.1 °F 28.6 °F 35.1 °F 100% 29.80 in 5.0 mi WSW 8.1 mph - N/A   Clear
8:52 AM 39.0 °F 34.8 °F 37.9 °F 96% 29.83 in 7.0 mi WSW 5.8 mph - N/A   Clear
9:52 AM 45.0 °F 41.2 °F 42.1 °F 90% 29.83 in 10.0 mi West 6.9 mph - N/A   Partly Cloudy
10:52 AM 50.0 °F - 44.1 °F 80% 29.84 in 10.0 mi WSW 8.1 mph - N/A   Partly Cloudy
11:17 AM 51.8 °F - 44.6 °F 76% 29.83 in 10.0 mi WSW 9.2 mph - N/A   Mostly Cloudy
11:52 AM 52.0 °F - 45.0 °F 77% 29.85 in 10.0 mi West 10.4 mph - N/A   Mostly Cloudy
12:52 PM 54.0 °F - 45.0 °F 72% 29.84 in 10.0 mi West 8.1 mph - N/A   Partly Cloudy
1:52 PM 55.9 °F - 43.0 °F 62% 29.84 in 10.0 mi West 12.7 mph - N/A   Scattered Clouds
2:52 PM 55.0 °F - 41.0 °F 59% 29.83 in 10.0 mi SW 11.5 mph - N/A   Clear
4:52 PM 55.0 °F - 39.0 °F 55% 29.86 in 10.0 mi WSW 8.1 mph - N/A   Clear
5:52 PM 52.0 °F - 39.0 °F 61% 29.88 in 10.0 mi WSW 6.9 mph - N/A   Clear
6:52 PM 48.0 °F - 39.9 °F 74% 29.89 in 10.0 mi SW 6.9 mph - N/A   Clear
8:52 PM 39.9 °F - 37.0 °F 89% 29.93 in 10.0 mi Calm Calm - N/A   Clear
9:52 PM 37.0 °F - 35.1 °F 93% 29.93 in 10.0 mi Calm Calm - N/A   Clear
11:52 PM 36.0 °F - 34.0 °F 93% 29.96 in 10.0 mi Calm Calm - N/A   Clear